Mount Vernon, IL

2:33 AM CDT on May 23, 2018 (GMT -0500)
Mount Vernon

Weather History for KMVN - August, 2014

Change the Weather History Date:

Sunday, August 24, 2014

  Actual Average Record
Temperature  
Mean Temperature 82 °F -  
Max Temperature 93 °F 84 °F 100 °F (2007)
Min Temperature 71 °F 62 °F 51 °F (2017)
Cooling Degree Days 17    
Growing Degree Days 32 (Base 50)    
Moisture  
Dew Point 72 °F    
Average Humidity 74    
Maximum Humidity 88    
Minimum Humidity 59    
Precipitation  
Precipitation 0.00 in - - ()
Sea Level Pressure  
Sea Level Pressure 29.97 in    
Wind  
Wind Speed 2 mph (SE)    
Max Wind Speed 9 mph    
Max Gust Speed -    
Visibility 10 miles    
Events      
Averages and records for this station are not official NWS values.
T = Trace of Precipitation, MM = Missing Value Source: NWS Daily Summary

Daily Weather History Graph

Daily Weather History Graph

Search for Another Location

Airport or City:

Astronomy

Aug. 24, 2014 Rise Set
Actual Time 6:17 AM CDT 7:36 PM CDT
Civil Twilight 5:50 AM CDT 8:04 PM CDT
Nautical Twilight 5:17 AM CDT 8:37 PM CDT
Astronomical Twilight 4:42 AM CDT 9:11 PM CDT
Moon 5:28 AM CDT (8/24) 6:55 PM CDT (8/24)
Length of Visible Light 14h 13m
Length of Day
13h 18m
Waning Crescent, 1% of the Moon is Illuminated
Aug 24
Waning Crescent
Aug 25
New
Sep 2
First Quarter
Sep 8
Full
Sep 15
Last Quarter

Hourly Weather History & Observations

Time (CDT) Temp. Heat Index Dew Point Humidity Pressure Visibility Wind Dir Wind Speed Gust Speed Precip Events Conditions
12:15 AM 73.4 °F - 66.2 °F 78% 29.98 in 10.0 mi SSE 4.6 mph - N/A   Clear
12:35 AM 73.4 °F - 66.2 °F 78% 29.98 in 10.0 mi Calm Calm - N/A   Clear
12:55 AM 73.4 °F - 66.2 °F 78% 29.98 in 10.0 mi Calm Calm - N/A   Partly Cloudy
1:15 AM 73.4 °F - 66.2 °F 78% 29.98 in 10.0 mi Calm Calm - N/A   Partly Cloudy
1:35 AM 73.4 °F - 66.2 °F 78% 29.98 in 10.0 mi Calm Calm - N/A   Clear
1:55 AM 73.4 °F - 66.2 °F 78% 29.97 in 10.0 mi Calm Calm - N/A   Scattered Clouds
2:15 AM 73.4 °F - 66.2 °F 78% 29.97 in 10.0 mi Calm Calm - N/A   Partly Cloudy
2:35 AM 73.4 °F - 66.2 °F 78% 29.96 in 10.0 mi Calm Calm - N/A   Clear
2:55 AM 71.6 °F - 66.2 °F 83% 29.96 in 8.0 mi Calm Calm - N/A   Clear
3:15 AM 71.6 °F - 66.2 °F 83% 29.96 in 10.0 mi Calm Calm - N/A   Clear
3:35 AM 73.4 °F - 66.2 °F 78% 29.95 in 10.0 mi WSW 3.5 mph - N/A   Clear
3:55 AM 71.6 °F - 66.2 °F 83% 29.95 in 6.0 mi Calm Calm - N/A   Clear
4:15 AM 71.6 °F - 66.2 °F 83% 29.96 in 10.0 mi Calm Calm - N/A   Clear
4:35 AM 71.6 °F - 66.2 °F 83% 29.95 in 8.0 mi Calm Calm - N/A   Clear
4:55 AM 71.6 °F - 66.2 °F 83% 29.95 in 10.0 mi Calm Calm - N/A   Clear
5:15 AM 71.6 °F - 66.2 °F 83% 29.95 in 10.0 mi Calm Calm - N/A   Clear
5:35 AM 71.6 °F - 66.2 °F 83% 29.96 in 10.0 mi Calm Calm - N/A   Clear
5:55 AM 71.6 °F - 66.2 °F 83% 29.96 in 10.0 mi Calm Calm - N/A   Clear
6:15 AM 71.6 °F - 64.4 °F 78% 29.96 in 8.0 mi Calm Calm - N/A   Clear
6:35 AM 71.6 °F - 68.0 °F 88% 29.97 in 10.0 mi Calm Calm - N/A   Clear
6:55 AM 71.6 °F - 66.2 °F 83% 29.97 in 10.0 mi Calm Calm - N/A   Clear
7:15 AM 73.4 °F - 66.2 °F 78% 29.98 in 10.0 mi Calm Calm - N/A   Clear
7:35 AM 73.4 °F - 69.8 °F 88% 29.99 in 10.0 mi South 3.5 mph - N/A   Clear
7:55 AM 75.2 °F - 69.8 °F 83% 29.99 in 10.0 mi South 3.5 mph - N/A   Clear
8:15 AM 77.0 °F - 69.8 °F 78% 29.99 in 10.0 mi SSW 3.5 mph - N/A   Clear
8:35 AM 78.8 °F - 71.6 °F 78% 29.99 in 10.0 mi SSW 5.8 mph - N/A   Clear
8:55 AM 80.6 °F 84.6 °F 71.6 °F 74% 29.99 in 10.0 mi SSW 9.2 mph - N/A   Clear
9:15 AM 80.6 °F 84.6 °F 71.6 °F 74% 29.99 in 10.0 mi SSW 8.1 mph - N/A   Clear
9:35 AM 82.4 °F 87.2 °F 71.6 °F 70% 29.99 in 10.0 mi SW 8.1 mph - N/A   Clear
9:55 AM 82.4 °F 88.2 °F 73.4 °F 74% 29.99 in 10.0 mi SW 8.1 mph - N/A   Clear
10:15 AM 84.2 °F 90.9 °F 73.4 °F 70% 29.99 in 10.0 mi SW 4.6 mph - N/A   Clear
10:35 AM 84.2 °F 90.9 °F 73.4 °F 70% 29.99 in 10.0 mi SW 3.5 mph - N/A   Clear
10:55 AM 87.8 °F 97.6 °F 75.2 °F 66% 29.99 in 10.0 mi SE 3.5 mph - N/A   Clear
11:15 AM 87.8 °F 97.6 °F 75.2 °F 66% 29.99 in 10.0 mi Calm Calm - N/A   Clear
11:35 AM 87.8 °F 95.6 °F 73.4 °F 62% 29.99 in 10.0 mi Calm Calm - N/A   Clear
11:55 AM 89.6 °F 99.8 °F 75.2 °F 62% 29.99 in 10.0 mi SSE 4.6 mph - N/A   Clear
12:15 PM 89.6 °F 99.8 °F 75.2 °F 62% 29.99 in 10.0 mi Calm Calm - N/A   Clear
12:35 PM 89.6 °F 102.2 °F 77.0 °F 66% 29.99 in 10.0 mi ESE 3.5 mph - N/A   Clear
12:55 PM 89.6 °F 102.2 °F 77.0 °F 66% 29.98 in 10.0 mi ESE 4.6 mph - N/A   Clear
1:15 PM 91.4 °F 105.1 °F 77.0 °F 63% 29.98 in 10.0 mi SSE 3.5 mph - N/A   Clear
1:35 PM 91.4 °F 105.1 °F 77.0 °F 63% 29.98 in 10.0 mi SE 6.9 mph - N/A   Partly Cloudy
1:55 PM 91.4 °F 107.2 °F 78.8 °F 66% 29.98 in 10.0 mi East 4.6 mph - N/A   Mostly Cloudy
2:15 PM 91.4 °F 107.2 °F 78.8 °F 66% 29.98 in 10.0 mi SE 4.6 mph - N/A   Mostly Cloudy
2:35 PM 91.4 °F 107.2 °F 78.8 °F 66% 29.97 in 10.0 mi East 4.6 mph - N/A   Mostly Cloudy
2:55 PM 91.4 °F 105.1 °F 77.0 °F 63% 29.96 in 10.0 mi East 3.5 mph - N/A   Scattered Clouds
3:15 PM 91.4 °F 105.1 °F 77.0 °F 63% 29.96 in 10.0 mi ESE 3.5 mph - N/A   Partly Cloudy
3:35 PM 93.2 °F 107.2 °F 77.0 °F 59% 29.96 in 10.0 mi ESE 9.2 mph - N/A   Scattered Clouds
3:55 PM 91.4 °F 105.1 °F 77.0 °F 63% 29.95 in 10.0 mi ESE 4.6 mph - N/A   Scattered Clouds
4:15 PM 91.4 °F 107.2 °F 78.8 °F 66% 29.95 in 10.0 mi ESE 6.9 mph - N/A   Mostly Cloudy
4:35 PM 91.4 °F 107.2 °F 78.8 °F 66% 29.94 in 10.0 mi East 8.1 mph - N/A   Partly Cloudy
4:55 PM 91.4 °F 105.1 °F 77.0 °F 63% 29.94 in 10.0 mi East 5.8 mph - N/A   Partly Cloudy
5:15 PM 89.6 °F 102.2 °F 77.0 °F 66% 29.94 in 10.0 mi ESE 3.5 mph - N/A   Partly Cloudy
5:35 PM 87.8 °F 99.7 °F 77.0 °F 70% 29.95 in 10.0 mi East 3.5 mph - N/A   Clear
5:55 PM 89.6 °F 102.2 °F 77.0 °F 66% 29.95 in 10.0 mi East 4.6 mph - N/A   Clear
6:15 PM 89.6 °F 102.2 °F 77.0 °F 66% 29.95 in 10.0 mi East 5.8 mph - N/A   Clear
6:35 PM 89.6 °F 102.2 °F 77.0 °F 66% 29.95 in 10.0 mi ESE 6.9 mph - N/A   Clear
6:55 PM 87.8 °F 99.7 °F 77.0 °F 70% 29.95 in 10.0 mi East 5.8 mph - N/A   Clear
7:15 PM 86.0 °F 95.1 °F 75.2 °F 70% 29.96 in 10.0 mi East 3.5 mph - N/A   Clear
7:35 PM 84.2 °F 92.3 °F 75.2 °F 74% 29.96 in 10.0 mi East 3.5 mph - N/A   Clear
7:55 PM 84.2 °F 92.3 °F 75.2 °F 74% 29.96 in 10.0 mi East 3.5 mph - N/A   Clear
8:15 PM 82.4 °F 89.5 °F 75.2 °F 79% 29.97 in 10.0 mi East 3.5 mph - N/A   Clear
8:35 PM 80.6 °F 86.2 °F 75.2 °F 84% 29.97 in 10.0 mi East 3.5 mph - N/A   Clear
8:55 PM 82.4 °F 89.5 °F 75.2 °F 79% 29.98 in 5.0 mi ESE 3.5 mph - N/A   Clear
9:15 PM 82.4 °F 89.5 °F 75.2 °F 79% 29.99 in 10.0 mi ESE 4.6 mph - N/A   Clear
9:35 PM 80.6 °F 85.4 °F 73.4 °F 79% 29.99 in 10.0 mi Calm Calm - N/A   Clear
9:55 PM 80.6 °F 85.4 °F 73.4 °F 79% 30.00 in 10.0 mi East 3.5 mph - N/A   Clear
10:15 PM 78.8 °F - 73.4 °F 83% 30.00 in 8.0 mi Calm Calm - N/A   Clear
10:35 PM 78.8 °F - 73.4 °F 83% 30.00 in 9.0 mi Calm Calm - N/A   Clear
10:55 PM 78.8 °F - 73.4 °F 83% 30.00 in 9.0 mi Calm Calm - N/A   Clear
11:15 PM 78.8 °F - 71.6 °F 78% 30.00 in 8.0 mi Calm Calm - N/A   Clear
11:35 PM 75.2 °F - 69.8 °F 83% 30.00 in 0.5 mi Calm Calm - N/A   Unknown
11:55 PM 77.0 °F - 71.6 °F 83% 30.01 in 7.0 mi Calm Calm - N/A   Clear